Trinidad, CO

11:46 AM MDT on May 21, 2018 (GMT -0600)
Stokes

Weather History for KTAD - February, 2013

Change the Weather History Date:

Monday, February 4, 2013

  Actual Average Record
Temperature  
Mean Temperature 38 °F 33 °F  
Max Temperature 59 °F 48 °F 72 °F (1963)
Min Temperature 16 °F 18 °F -11 °F (1989)
Degree Days  
Heating Degree Days 27 32  
Month to date heating degree days 110 128  
Since 1 July heating degree days 3160 3410  
Cooling Degree Days 0 0  
Month to date cooling degree days 0 0  
Year to date cooling degree days 0 0  
Moisture  
Dew Point 10 °F    
Average Humidity 43    
Maximum Humidity 73    
Minimum Humidity 13    
Precipitation  
Precipitation 0.00 in 0.02 in 0.57 in (1961)
Month to date precipitation 0.00 0.06  
Year to date precipitation 0.08 0.46  
Sea Level Pressure  
Sea Level Pressure 29.92 in    
Wind  
Wind Speed 7 mph (West)    
Max Wind Speed 14 mph    
Max Gust Speed 17 mph    
Visibility 10 miles    
Events      
T = Trace of Precipitation, MM = Missing Value Source: NWS Daily Summary

Daily Weather History Graph

Daily Weather History Graph

Search for Another Location

Airport or City:

Astronomy

Feb. 04, 2013 Rise Set
Actual Time 6:57 AM MST 5:25 PM MST
Civil Twilight 6:30 AM MST 5:52 PM MST
Nautical Twilight 5:59 AM MST 6:23 PM MST
Astronomical Twilight 5:28 AM MST 6:54 PM MST
Moon 1:34 AM MST (2/4) 11:53 AM MST (2/4)
Length of Visible Light 11h 22m
Length of Day
10h 28m
Last Quarter, 36% of the Moon is Illuminated
Feb 4
Last Quarter
Feb 10
New
Feb 17
First Quarter
Feb 25
Full
Mar 4
Last Quarter

Hourly Weather History & Observations

Time (MST) Temp. Windchill Dew Point Humidity Pressure Visibility Wind Dir Wind Speed Gust Speed Precip Events Conditions
12:54 AM 32.0 °F 24.2 °F 12.0 °F 44% 29.88 in 10.0 mi WNW 9.2 mph - N/A   Clear
1:54 AM 30.0 °F 22.4 °F 12.9 °F 49% 29.90 in 10.0 mi WNW 8.1 mph - N/A   Clear
3:54 AM 26.1 °F 16.8 °F 10.9 °F 53% 29.99 in 10.0 mi West 9.2 mph - N/A   Clear
4:54 AM 25.0 °F 18.1 °F 10.9 °F 55% 30.01 in 10.0 mi WNW 5.8 mph - N/A   Clear
5:54 AM 19.9 °F 12.1 °F 9.0 °F 62% 30.04 in 10.0 mi West 5.8 mph - N/A   Clear
6:54 AM 16.0 °F 5.3 °F 9.0 °F 74% 30.06 in 10.0 mi WNW 8.1 mph - N/A   Clear
7:54 AM 26.1 °F 17.6 °F 12.9 °F 58% 30.02 in 10.0 mi West 8.1 mph - N/A   Clear
8:54 AM 37.0 °F 31.6 °F 14.0 °F 39% 29.99 in 10.0 mi WSW 6.9 mph - N/A   Clear
9:54 AM 43.0 °F 38.8 °F 10.9 °F 27% 29.97 in 10.0 mi South 6.9 mph - N/A   Clear
10:54 AM 45.0 °F 43.5 °F 9.0 °F 23% 29.97 in 10.0 mi South 3.5 mph - N/A   Clear
11:54 AM 48.9 °F - 8.1 °F 19% 29.91 in 10.0 mi SSE 9.2 mph - N/A   Clear
12:54 PM 52.0 °F - 9.0 °F 18% 29.87 in 10.0 mi Variable 6.9 mph - N/A   Clear
1:54 PM 55.0 °F - 8.1 °F 15% 29.82 in 10.0 mi ESE 8.1 mph - N/A   Clear
2:54 PM 57.9 °F - 7.0 °F 13% 29.79 in 10.0 mi East 8.1 mph - N/A   Clear
3:54 PM 57.9 °F - 6.1 °F 13% 29.81 in 10.0 mi Calm Calm - N/A   Clear
4:54 PM 52.0 °F - 7.0 °F 16% 29.83 in 10.0 mi NE 5.8 mph - N/A   Clear
5:54 PM 48.9 °F - 8.1 °F 19% 29.87 in 10.0 mi Calm Calm - N/A   Clear
6:54 PM 39.0 °F 32.3 °F 9.0 °F 29% 29.94 in 10.0 mi WSW 10.4 mph - N/A   Clear
7:54 PM 36.0 °F 28.0 °F 10.0 °F 34% 29.93 in 10.0 mi West 11.5 mph - N/A   Clear
8:54 PM 36.0 °F 32.1 °F 10.0 °F 34% 29.90 in 10.0 mi West 4.6 mph - N/A   Clear
9:54 PM 34.0 °F 28.0 °F 10.0 °F 37% 29.89 in 10.0 mi WNW 6.9 mph - N/A   Clear
10:54 PM 32.0 °F 25.6 °F 10.0 °F 40% 29.89 in 10.0 mi West 6.9 mph - N/A   Clear
11:54 PM 30.0 °F 20.5 °F 10.9 °F 45% 29.88 in 10.0 mi WSW 11.5 mph - N/A   Clear